Weather History for Osoyoos, BC

Change the Weather History Date:

Thursday, September 27, 2012

  Actual Average Record
Temperature  
Mean Temperature 61 °F -  
Max Temperature 80 °F - - ()
Min Temperature 42 °F - - ()
Degree Days  
Heating Degree Days 4    
Growing Degree Days 11 (Base 50)    
Moisture  
Dew Point 44 °F    
Average Humidity 62    
Maximum Humidity 94    
Minimum Humidity 18    
Precipitation  
Precipitation 0.00 in - - ()
Sea Level Pressure  
Sea Level Pressure 30.03 in    
Wind  
Wind Speed 2 mph ()    
Max Wind Speed 5 mph    
Max Gust Speed -    
T = Trace of Precipitation, MM = Missing Value Source: Averaged Metar Reports

Daily Weather History Graph

Daily Weather History Graph

Search for Another Location

Airport:

Trip Planner

Search our weather history database for the weather conditions in past years. The results will help you decide how hot, cold, wet, or windy it might be!

Date:

Astronomy

Sep. 27, 2012 Rise Set
Actual Time 6:52 AM PDT 6:43 PM PDT
Civil Twilight 6:20 AM PDT 7:15 PM PDT
Nautical Twilight 5:43 AM PDT 7:52 PM PDT
Astronomical Twilight 5:05 AM PDT 8:29 PM PDT
Moon 5:23 PM PDT 4:17 AM PDT
Length of Visible Light 12h 54m
Length of Day
11h 51m
Waxing Gibbous, 94% of the Moon is Illuminated
Sep 27
Waxing Gibbous
Sep 29
Full
Oct 8
Last Quarter
Oct 15
New
Oct 21
First Quarter

Hourly Weather History & Observations

Time (PDT) Temp. Dew Point Humidity Pressure Visibility Wind Dir Wind Speed Gust Speed Precip Events Conditions
12:00 AM 51.3 °F 45.9 °F 82% 30.06 in - Calm Calm - N/A   Unknown
1:00 AM 48.0 °F 44.2 °F 87% 30.06 in - ENE 1.2 mph - N/A   Unknown
2:00 AM 47.5 °F 44.8 °F 90% 30.09 in - ENE 2.3 mph - N/A   Unknown
3:00 AM 46.6 °F 43.7 °F 90% 30.09 in - ENE 1.2 mph - N/A   Unknown
4:00 AM 45.5 °F 43.7 °F 93% 30.09 in - ENE 1.2 mph - N/A   Unknown
5:00 AM 44 °F 43 °F 93% 30.10 in - ENE 1.2 mph - -  
5:00 AM 44.4 °F 42.6 °F 93% 30.10 in - ENE 1.2 mph - N/A   Unknown
6:00 AM 43.7 °F 42.1 °F 94% 30.11 in - ENE 2.3 mph - N/A   Unknown
7:00 AM 42.8 °F 41.2 °F 94% 30.12 in - Calm Calm - N/A   Unknown
8:00 AM 45.0 °F 43.0 °F 93% 30.12 in - Calm Calm - N/A   Unknown
9:00 AM 55.0 °F 47.5 °F 76% 30.12 in - NE 1.2 mph - N/A   Unknown
10:00 AM 58.6 °F 40.8 °F 52% 30.11 in - NW 1.2 mph - N/A   Unknown
11:00 AM 63 °F 41 °F 32% 30.09 in - NNW 1.2 mph - -  
11:00 AM 63.1 °F 40.8 °F 44% 30.09 in - NNW 1.2 mph - N/A   Unknown
12:00 PM 66.9 °F 40.3 °F 38% 30.07 in - SW 2.3 mph - N/A   Unknown
1:00 PM 70.0 °F 39.9 °F 33% 30.04 in - SW 2.3 mph - N/A   Unknown
2:00 PM 74.1 °F 39.9 °F 29% 30.01 in - SW 2.3 mph - N/A   Unknown
3:00 PM 76.8 °F 40.6 °F 27% 29.98 in - South 2.3 mph - N/A   Unknown
4:00 PM 79.7 °F 42.1 °F 26% 29.95 in - SE 4.6 mph - N/A   Unknown
5:00 PM 80 °F 44 °F 18% 29.94 in - SE 3.5 mph - -  
5:00 PM 79.9 °F 44.4 °F 28% 29.94 in - SE 3.5 mph - N/A   Unknown
6:00 PM 76.1 °F 44.6 °F 33% 29.91 in - SE 3.5 mph - N/A   Unknown
7:00 PM 71.2 °F 43.0 °F 36% 29.91 in - ESE 4.6 mph - N/A   Unknown
8:00 PM 68.4 °F 47.5 °F 47% 29.91 in - South 3.5 mph - N/A   Unknown
9:00 PM 57.9 °F 49.3 °F 73% 29.93 in - NNE 2.3 mph - N/A   Unknown
10:00 PM 57.2 °F 51.1 °F 80% 29.94 in - NNE 3.5 mph - N/A   Unknown
11:00 PM 53 °F 48 °F 79% 29.94 in - NE 2.3 mph - -  
11:00 PM 53.2 °F 48.4 °F 84% 29.94 in - NE 2.3 mph - N/A   Unknown